星链-11395 (STARLINK-11395)

导读

STARLINK-11395是美国太空探索技术公司(SpaceX)于2024年11月14日发射的星链(Starlink)系列低轨通信卫星,隶属于SpaceX主导的全球卫星互联网星座项目。星链计划计划部署数万颗低轨卫星,旨在为全球偏远地区提供低延迟高速宽带服务,该卫星目前仍正常在轨工作,属于星链星座组网建设的组成部分,支撑星座服务覆盖能力的持续扩展。

基本信息
目录编号:
61951
目录名称:
STARLINK-11395
国际标识:
2024-209N
轨道中心:
EARTH
卫星名称:
星链-11395
卫星全名:
星链-11395 (STARLINK-11395)
卫星状态:
在轨 (已飞行621 天)
发射日期:
2024-11-14 UTC
国别 :
美国 (US)
星等 :
--
轨道信息
数据来源 国际轨道数据
星历时间: 2026-07-27T20:56:37+0800
11小时前
查看轨道信息
半长轴: 6737.485km
偏心率: 0.0000456
轨道倾角: 53.157°
近地点辐角 120.032°
升交点赤经 41.794°
平近点角 240.074°
近地点: 359.04km
远地点: 359.656km
周期: 91.729分钟
每日圈数: 15.698425
详细信息
固有亮度:
5
最大亮度:
2.5
卫星平台:
Starlink V1.0
覆盖范围:
全球
运营商:
太空探索技术公司
运营商所在国:
美国
制造商(研发单位):
太空探索技术公司
制造商所在国:
美国
使用方式:
暂无
卫星简介
Starlink 计划是 SpaceX 推出的全球卫星互联网项目,通过发射低轨道卫星,为全球尤其是偏远地区提供高速、低延迟的互联网服务。自 2019 年起,Starlink 已部署数千颗卫星,旨在缩小全球数字鸿沟,推动互联网普及。该项目还为军事、航空等行业提供通信支持,带来广泛经济效益。
2D轨道图
3D轨道图
轨道高度分析图
轨道倾角分析图
轨道综合分析图
查看轨道综合分析图